Location: Hradec Kralove
(50.2170°N, 15.8330°E)
Time: 07:41:56
(UTC+01:00)

Transit 2A Rocket - Visible Passes

Search period start: 06 February 2023 00:00
Search period end: 16 February 2023 00:00
Orbit: 585 x 915 km, 66.7° (Epoch: 05 February)

Date Brightness Start Highest point End Pass type
(mag) Time Alt. Az. Time Alt. Az. Time Alt. Az.
06 Feb 7.8 02:53:27 13° NNE 02:53:27 13° NNE 02:54:51 10° NNE visible
06 Feb 7.3 04:33:19 14° NNW 04:36:13 19° NNE 04:40:29 10° ENE visible
06 Feb 6.3 06:14:34 10° NNW 06:20:17 46° NE 06:26:09 10° ESE visible
07 Feb 7.4 03:51:20 16° N 03:52:33 17° NNE 03:56:22 10° NE visible
07 Feb 6.7 05:31:33 10° NNW 05:36:55 34° NE 05:42:27 10° E visible
08 Feb 7.6 03:09:21 16° NNE 03:09:21 16° NNE 03:12:21 10° NE visible
08 Feb 7.1 04:49:13 13° NNW 04:53:27 26° NNE 04:58:32 10° E visible
08 Feb 5.5 06:30:55 10° NW 06:36:58 79° NE 06:43:06 10° SE visible
09 Feb 7.9 02:27:23 13° NNE 02:27:23 13° NNE 02:28:33 10° NNE visible
09 Feb 7.3 04:07:16 16° N 04:09:54 22° NNE 04:14:29 10° ENE visible
09 Feb 6.0 05:47:52 10° NNW 05:53:46 56° NE 05:59:46 10° SE visible
10 Feb 7.4 03:25:19 18° N 03:26:15 18° NNE 03:30:21 10° ENE visible
10 Feb 6.5 05:05:11 12° NNW 05:10:28 40° NE 05:16:12 10° ESE visible
11 Feb 7.7 02:43:25 16° NNE 02:43:25 16° NNE 02:46:16 10° NE visible
11 Feb 6.9 04:23:17 17° NNW 04:27:02 31° NNE 04:32:24 10° E visible
11 Feb 5.4 06:04:17 10° NW 06:10:20 84° WSW 06:16:28 10° SSE visible
12 Feb 8.1 02:01:32 12° NNE 02:01:32 12° NNE 02:02:19 10° NE visible
12 Feb 7.2 03:41:24 20° N 03:43:32 24° NNE 03:48:26 10° E visible
12 Feb 5.6 05:21:16 10° NW 05:27:12 68° NE 05:33:18 10° SE visible
13 Feb 7.4 02:59:35 20° NNE 02:59:56 20° NNE 03:04:20 10° ENE visible
13 Feb 6.2 04:39:27 17° NNW 04:43:57 48° NE 04:49:52 10° ESE visible
13 Feb 5.7 06:20:54 10° NW 06:26:37 45° WSW 06:32:21 10° S visible
14 Feb 7.8 02:17:48 16° NNE 02:17:48 16° NNE 02:20:11 10° NE visible
14 Feb 6.7 03:57:41 23° N 04:00:35 36° NE 04:06:11 10° ESE visible
14 Feb 5.3 05:37:38 10° NW 05:43:39 68° WSW 05:49:42 10° SSE visible
15 Feb 8.2 01:36:07 10° NE 01:36:07 10° NE 01:36:09 10° NE visible
15 Feb 7.0 03:16:00 26° NNE 03:17:08 28° NNE 03:22:18 10° E visible
15 Feb 5.4 04:55:53 18° NW 05:00:35 84° NE 05:06:43 10° SE visible
